STARLINK-31879, 59937

Orbit data source: Space-Track

STARLINK-31879, 59937 is a payload satellite owned by SpaceX/Seattle (US) in LEO that was launched on Sat, 01 Jun 2024 UTC via an FALCON 9 launch vehicle from the Air Force Eastern Test Range (AFETR). Payload-class satellites include a variety of spacecraft equipped with specific instruments for various scientific and technological missions. These include communications satellites like Starlink; space stations such as the ISS; scientific satellites like the Hubble; Earth observation satellites from companies like Planet Labs, Umbra, and HawkEye 360; GPS; miniature CubeSats for education and research; and military/defense satellites.

Loading next visibility...
Identifier
59937, 2024-106R
Orbit
LEO
Country
Flag of USUS
Related business
Manufacturer
SpaceX/Seattle
Mission
Operational Commercial Communications
Bus & Motor
STARLINK V2M, Unknown motor
Mass
730 kg wet, ~700 kg dry
Launch date (UTC)
2024-06-01 (2 years ago)
Launch vehicle
FALCON 9
Launch site
Air Force Eastern Test Range (AFETR)
Object type
Payload
Rocket body
Debris
Shape & HBR
Box + 2 Pan, 17.7 m
Radar Cross Section
33.884 m², Large (>1 m²)

Expand to show TLE details & history
Last TLE update: 2 days ago

TLE from 2 days ago
0 STARLINK-31879
1 59937U 24106R   26171.25441087  .00000501  00000-0  27708-4 0  9998
2 59937  43.0017 113.7243 0001074 244.6069 115.4672 15.27584127116257
Epoch: 2026-06-20T06:06Z
TLE epoch observation values (Epoch: 2026-06-20T06:06:21.099Z)
Latitude
0.00003°
Longitude
113.66474°
Altitude
483.129 km
Speed
7.625 km/s
True Right ascension
07h 34m 53s
True Declination
0° 00' 00"
Sunlit
Object was in daylight at epoch
Visualization orbit readout
Latitude
Unknown
Longitude
Unknown
Altitude
Unknown
Speed
Unknown
Apparent Right ascension
Unknown
Apparent Declination
Unknown
Sunlit
N/A
Visualization observer readout
Local Sidereal Time
21:41:02
Azimuth
Unknown
Elevation
Unknown
Doppler factor
Unknown
Orbital elements
Apogee altitude
485.719 km
Perigee altitude
484.245 km
Semi-major axis
6,863.119 km
Eccentricity
0.00011
Inclination
43.0017°
RAAN
113.7243°
Arg. of periapsis
244.6069°
True anomaly
115.47831°
Mean anomaly
115.4672°
Eccentric anomaly
115.47276°
Mean motion
3.81734 °/min
Orbital period
94.31 mins
BSTAR
0.000027708
Loading maneuver chart data...
Computing Atmospheric mass density...
Loading historical data...
Loading historical data...
Loading historical data...
Loading historical data...
Loading historical data...
Loading historical data...
Loading historical data...

Documentation

Showing up to 5 results
|